Terminal Aerodrome Forecast
Issued by NWS North Platte, NE

Home | Current Version | Previous Version | Graphics & Text | Print | Product List | Glossary On
Versions: 1 2 3 4 5 6 7 8 9 10 11 12 13 14 15 16 17 18 19 20 21 22 23 24 25 26
000
FTUS43 KLBF 251205 AAA
TAFVTN
TAF AMD
KVTN 251205Z 2512/2612 VRB03KT 6SM BR SCT005
      TEMPO 2512/2515 2SM BR BKN005
     FM251500 15005KT P6SM SKC
     FM251800 15010KT P6SM SKC
     FM260300 14008KT P6SM SCT250
     FM260900 15005KT P6SM OVC250=

USA.gov is the U.S. government's official web portal to all federal, state and local government web resources and services.